TimeMDT,TemperatureF,Dew PointF,Humidity,Sea Level PressureIn,VisibilityMPH,Wind Direction,Wind SpeedMPH,Gust SpeedMPH,PrecipitationIn,Events,Conditions,WindDirDegrees,DateUTC
12:30 AM,68.0,55.4,64,29.87,10.0,Variable,4.6,-,0.01,Rain,Light Rain,0,2012-09-02 06:30:00
1:51 AM,66.9,48.0,51,29.81,10.0,West,10.4,-,N/A,,Mostly Cloudy,280,2012-09-02 07:51:00
1:59 AM,68.0,46.4,46,29.89,10.0,WNW,12.7,-,N/A,Thunderstorm,Mostly Cloudy,290,2012-09-02 07:59:00
2:14 AM,68.0,46.4,46,29.88,10.0,WNW,9.2,-,N/A,,Mostly Cloudy,300,2012-09-02 08:14:00
2:22 AM,66.2,48.2,52,29.88,10.0,WNW,8.1,-,0.01,Rain-Thunderstorm,Light Rain,300,2012-09-02 08:22:00
2:37 AM,66.2,48.2,52,29.89,10.0,NW,8.1,-,0.01,,Mostly Cloudy,310,2012-09-02 08:37:00
2:51 AM,66.0,48.9,54,29.80,10.0,NNW,4.6,-,0.01,,Overcast,330,2012-09-02 08:51:00
3:51 AM,64.0,52.0,65,29.83,10.0,West,9.2,-,0.00,,Overcast,280,2012-09-02 09:51:00
4:51 AM,63.0,51.1,65,29.84,10.0,West,10.4,-,N/A,,Mostly Cloudy,270,2012-09-02 10:51:00
5:51 AM,64.9,50.0,58,29.86,10.0,West,10.4,-,0.00,Rain,Light Rain,280,2012-09-02 11:51:00
6:51 AM,64.0,46.0,52,29.92,10.0,WNW,21.9,29.9,0.00,,Overcast,290,2012-09-02 12:51:00
7:51 AM,59.0,54.0,83,29.89,10.0,South,9.2,-,0.02,Rain,Light Rain,180,2012-09-02 13:51:00
8:51 AM,62.1,54.0,75,29.92,10.0,West,9.2,-,0.00,,Clear,260,2012-09-02 14:51:00
9:51 AM,70.0,50.0,49,29.91,10.0,West,15.0,20.7,N/A,,Clear,280,2012-09-02 15:51:00
10:51 AM,73.9,46.0,37,29.92,10.0,West,11.5,-,N/A,,Clear,280,2012-09-02 16:51:00
11:51 AM,78.1,34.0,20,29.91,10.0,West,13.8,24.2,N/A,,Clear,270,2012-09-02 17:51:00
12:51 PM,79.0,28.0,15,29.91,10.0,WNW,13.8,21.9,N/A,,Clear,290,2012-09-02 18:51:00
1:51 PM,81.0,30.0,16,29.90,10.0,West,13.8,24.2,N/A,,Clear,260,2012-09-02 19:51:00
2:51 PM,82.0,28.0,14,29.89,10.0,West,15.0,19.6,N/A,,Clear,260,2012-09-02 20:51:00
3:51 PM,82.9,25.0,12,29.88,10.0,West,17.3,25.3,N/A,,Clear,270,2012-09-02 21:51:00
4:51 PM,82.9,26.1,13,29.88,10.0,West,18.4,26.5,N/A,,Clear,260,2012-09-02 22:51:00
5:51 PM,81.0,25.0,13,29.88,10.0,WNW,10.4,-,N/A,,Clear,300,2012-09-02 23:51:00
6:51 PM,78.1,28.9,17,29.89,10.0,WNW,5.8,-,N/A,,Clear,290,2012-09-03 00:51:00
7:51 PM,68.0,32.0,26,29.91,10.0,South,5.8,-,N/A,,Clear,190,2012-09-03 01:51:00
8:51 PM,61.0,34.0,36,29.92,10.0,South,4.6,-,N/A,,Clear,180,2012-09-03 02:51:00
9:51 PM,60.1,32.0,35,29.90,10.0,ESE,5.8,-,N/A,,Clear,120,2012-09-03 03:51:00
10:51 PM,57.9,33.1,39,29.89,10.0,SSE,5.8,-,N/A,,Clear,150,2012-09-03 04:51:00
11:51 PM,57.0,32.0,39,29.88,10.0,East,3.5,-,N/A,,Clear,100,2012-09-03 05:51:00